DW6282 Weather Reports


time (UTC)temp
C
wind
direction
speed
KPH
gust
KPH
rain 1hr
cm
rain 24hr
cm
rain mn
cm
humidity
%
barometer
mb
20260502181527 22 6 12.9 22.5 0.00 3.28 0.00 65 1018.5
20260502163019 20 15 16.1 25.7 0.00 5.41 0.00 74 1018.7
20260502161510 20 16 16.1 25.7 0.00 5.41 0.00 73 1018.4
20260502151605 18 20 12.9 24.1 0.00 5.46 0.00 79 1018.5
20260502123029 13 349 8.0 16.1 0.00 5.87 0.00 92 1016.9
20260502121524 12 25 8.0 16.1 0.00 5.87 0.00 91 1016.6
20260502114528 12 24 8.0 16.1 0.00 5.87 0.00 90 1016.1
20260502113022 13 21 9.7 20.9 0.00 5.87 0.00 89 1015.9
20260502111514 12 11 12.9 20.9 0.00 5.87 0.00 88 1015.7
20260502110015 12 15 9.7 17.7 0.00 5.87 0.00 89 1015.6
20260502104511 12 14 8.0 14.5 0.00 5.87 0.00 89 1015.5
20260502103008 13 2 9.7 16.1 0.00 5.87 0.00 89 1015.1
20260502101506 13 16 8.0 12.9 0.00 5.87 0.00 90 1015.0
20260502070055 13 4 9.7 22.5 0.00 5.87 0.00 97 1013.7
20260502064613 13 22 12.9 22.5 0.00 5.87 0.00 97 1013.7
20260502063057 13 31 8.0 20.9 0.00 5.87 0.00 97 1013.6
20260502061545 13 23 6.4 17.7 0.00 5.87 0.00 97 1013.5
20260502060047 13 17 9.7 24.1 0.00 5.87 0.00 97 1013.5
20260502054541 13 34 6.4 19.3 0.00 5.87 0.00 97 1013.6
20260502053040 13 359 16.1 29.0 0.00 5.87 0.00 97 1013.9
20260502051536 13 13 11.3 22.5 0.00 5.87 0.00 97 1013.8
20260502050034 13 18 12.9 20.9 0.00 5.87 0.00 97 1013.8
20260502044531 13 1 17.7 30.6 0.00 5.87 5.87 97 1013.7
20260502043029 13 27 19.3 27.4 0.00 5.87 5.87 97 1013.7
20260502041533 13 13 11.3 25.7 0.00 5.87 5.87 97 1013.7
20260502040023 13 7 14.5 24.1 0.03 5.87 5.87 97 1013.5
20260502034519 14 8 14.5 20.9 0.05 5.87 5.87 97 1012.9
20260502033026 14 14 11.3 27.4 0.08 5.87 5.87 97 1012.6
20260502031514 14 33 14.5 25.7 0.10 5.87 5.87 97 1012.2
20260502030012 14 15 14.5 25.7 0.05 5.82 5.82 97 1011.7
20260502024514 15 20 14.5 19.3 0.05 5.94 5.82 97 1011.8
20260502023009 15 20 12.9 24.1 0.03 5.92 5.77 97 1011.9
20260502021508 15 8 11.3 20.9 0.03 5.87 5.77 97 1011.8
20260502020006 15 337 14.5 20.9 0.05 5.87 5.77 97 1011.7
20260502014503 15 8 12.9 20.9 0.13 6.02 5.77 97 1011.4
20260502013002 15 2 12.9 22.5 0.30 6.02 5.77 97 1010.9
20260502011501 15 19 12.9 17.7 0.28 5.99 5.71 97 1010.3
20260502010111 15 96 3.2 12.9 0.28 5.97 5.71 97 1009.2
20260502004558 15 13 16.1 29.0 0.20 6.12 5.64 97 1009.3
20260502003057 15 11 16.1 29.0 0.05 5.94 5.46 97 1009.4
20260502001556 15 15 17.7 29.0 0.10 5.94 5.46 97 1008.9
20260502000055 15 44 16.1 27.4 0.08 5.92 5.44 97 1008.8
20260501234553 16 12 17.7 27.4 0.08 5.99 5.44 97 1008.8
20260501233101 16 9 14.5 22.5 0.10 5.97 5.41 97 1008.0
20260501231549 16 6 14.5 24.1 0.10 5.92 5.36 97 1007.9
20260501230048 16 25 8.0 22.5 0.13 5.92 5.36 97 1007.6
20260501224544 16 29 8.0 14.5 0.13 5.92 5.36 97 1008.4
20260501223043 16 30 8.0 17.7 0.13 5.87 5.31 97 1008.5
20260501221542 16 103 12.9 25.7 0.23 5.82 5.23 97 1009.0
20260501220040 16 12 11.3 20.9 0.46 5.77 5.23 97 1008.5
20260501214538 17 13 11.3 17.7 0.56 5.77 5.23 97 1008.4
20260501213037 17 49 3.2 16.1 0.61 5.71 5.18 97 1007.6
20260501211538 17 16 6.4 19.3 1.17 5.56 5.00 97 1008.7
20260501210037 17 32 6.4 19.3 1.12 5.33 4.78 97 1008.1
20260501204545 17 33 8.0 17.7 1.40 5.18 4.65 97 1007.9
20260501203033 17 115 3.2 14.5 1.85 5.13 4.57 97 1007.2
20260501201533 17 322 8.0 25.7 1.24 4.39 3.84 97 1008.0
20260501200034 17 18 16.1 24.1 1.07 4.22 3.66 97 1006.8
20260501194531 17 83 3.2 11.3 0.61 3.76 3.20 97 1007.2
20260501193030 17 28 6.4 22.5 0.13 3.28 2.72 97 1007.0
20260501191538 17 35 4.8 20.9 0.00 3.15 2.59 97 1007.5
20260501190029 17 28 3.2 12.9 0.00 3.15 2.59 97 1007.6
20260501184541 17 22 8.0 12.9 0.00 3.15 2.59 97 1008.3
20260501183034 17 25 6.4 20.9 0.00 3.15 2.59 97 1007.5